Regional Weather Roundup
Issued by NWS Charleston, WV

Home | Current Version | Previous Version | Graphics & Text | Print | Product List | Glossary On
Versions: 1 2 3 4 5 6 7 8 9 10 11 12 13 14 15 16 17 18 19 20 21 22 23 24 25 26 27 28 29 30 31 32 33 34 35 36 37 38 39 40 41 42 43 44 45 46 47 48 49 50
000
ASUS41 KRLX 111010
RWRRLX
West Virginia Regional Weather Roundup
National Weather Service Charleston WV
500 AM EST THU FEB 11 2016

Note: "fair" indicates few or no clouds below 12,000 feet with no
significant weather and/or obstructions to visibility.

WVZ003-111100-
Northern Panhandle of West Virginia

CITY           SKY/WX    TMP DP  RH WIND       PRES   REMARKS
WHEELING       LGT SNOW  11   5  77 W14       30.01R WCI  -5
$$

WVZ009-111100-
Northwest West Virginia

CITY           SKY/WX    TMP DP  RH WIND       PRES   REMARKS
PARKERSBURG    CLOUDY    12   4  70 W10       30.14R WCI  -1
$$

WVZ006-111100-
Western West Virginia

CITY           SKY/WX    TMP DP  RH WIND       PRES   REMARKS
HUNTINGTON     CLOUDY    17   8  67 VRB3      30.16R
$$

WVZ015-111100-
West Central West Virginia

CITY           SKY/WX    TMP DP  RH WIND       PRES   REMARKS
CHARLESTON     FLURRIES  16   3  56 NW9G28    30.14R WCI   4
$$

WVZ022-031-111100-
North Central West Virginia

CITY           SKY/WX    TMP DP  RH WIND       PRES   REMARKS
CLARKSBURG     LGT SNOW  12   6  77 W10       30.05R WCI  -1
MORGANTOWN     CLOUDY    12   3  67 SW9       30.03R WCI   0
$$

WVZ025-035-042-045-111100-
Southern West Virginia

CITY           SKY/WX    TMP DP  RH WIND       PRES   REMARKS
BECKLEY        LGT SNOW  11   5  77 W10       29.99R WCI  -3
LOGAN          CLOUDY    16   7  67 CALM      30.09R
BLUEFIELD      LGT SNOW  10   5  80 W12       29.97R WCI  -5
LEWISBURG      CLOUDY    14   6  70 W9        29.97S WCI   2
$$

WVZ047-111100-
Northern Mountains of West Virginia

CITY           SKY/WX    TMP DP  RH WIND       PRES   REMARKS
ELKINS         CLOUDY    10   1  67 W15       29.98R WCI  -7
$$

WVZ052-111100-
Eastern Panhandle of West Virginia

CITY           SKY/WX    TMP DP  RH WIND       PRES   REMARKS
MARTINSBURG    MOCLDY    17   3  54 W10       29.99R WCI   5
PETERSBURG     CLOUDY    17   3  53 CALM      30.01S
$$



USA.gov is the U.S. government's official web portal to all federal, state and local government web resources and services.